Weather History for KNPA - November, 2013

Change the Weather History Date:

Monday, November 18, 2013

  Actual Average (KPNS) Record (KPNS)
Temperature  
Mean Temperature 66 °F 60 °F  
Max Temperature 73 °F 70 °F 82 °F (1958)
Min Temperature 57 °F 51 °F 27 °F (1951)
Degree Days  
Heating Degree Days 0 6  
Month to date heating degree days 80  
Since 1 July heating degree days 118  
Cooling Degree Days 2 1  
Month to date cooling degree days 34  
Year to date cooling degree days 2584  
Growing Degree Days 16 (Base 50)    
Moisture  
Dew Point 67 °F    
Average Humidity 92    
Maximum Humidity 100    
Minimum Humidity 44    
Precipitation  
Precipitation 0.49 in 0.15 in 2.26 in (1947)
Month to date precipitation 2.89  
Year to date precipitation 58.88  
Snow  
Snow 0.00 in 0.00 in 0.00 in (2002)
Month to date snowfall 0.0  
Since 1 July snowfall 0.0  
Snow Depth -    
Sea Level Pressure  
Sea Level Pressure 29.99 in    
Wind  
Wind Speed 5 mph (WNW)    
Max Wind Speed 15 mph    
Max Gust Speed 21 mph    
Visibility 6 miles    
Events Fog , Rain , Thunderstorm    
T = Trace of Precipitation, MM = Missing Value Source: NWS Daily Summary

Daily Weather History Graph

Daily Weather History Graph

Search for Another Location

Airport or City:

Trip Planner

Search our weather history database for the weather conditions in past years. The results will help you decide how hot, cold, wet, or windy it might be!

Date:

Astronomy

Nov. 18, 2013 Rise Set
Actual Time 6:17 AM CST 4:51 PM CST
Civil Twilight 5:52 AM CST 5:16 PM CST
Nautical Twilight 5:23 AM CST 5:45 PM CST
Astronomical Twilight 4:54 AM CST 6:14 PM CST
Moon 5:54 PM CST (11/18) 7:05 AM CST (11/18)
Length of Visible Light 11h 24m
Length of Day
10h 33m
Full, 99% of the Moon is Illuminated
Nov 18
Full
Nov 25
Last Quarter
Dec 2
New
Dec 9
First Quarter
Dec 17
Full

Hourly Weather History & Observations

Time (CST) Temp. Dew Point Humidity Pressure Visibility Wind Dir Wind Speed Gust Speed Precip Events Conditions
12:56 AM 73.0 °F 73.0 °F 100% 29.98 in 2.5 mi Variable 3.5 mph - N/A   Overcast
1:04 AM 73.4 °F 73.4 °F 100% 29.97 in 3.0 mi SW 6.9 mph - N/A   Overcast
1:56 AM 73.0 °F 73.0 °F 100% 29.96 in 6.0 mi SW 4.6 mph - N/A   Overcast
2:17 AM 73.4 °F 73.4 °F 100% 29.95 in 1.8 mi SW 5.8 mph - N/A   Overcast
2:56 AM 72.0 °F 72.0 °F 100% 29.96 in 1.0 mi Calm Calm - N/A   Mist
3:20 AM 73.4 °F 73.4 °F 100% 29.94 in 0.8 mi Calm Calm - 0.00 in Thunderstorm Unknown
3:28 AM 73.4 °F 73.4 °F 100% 29.95 in 1.2 mi WSW 3.5 mph - 0.01 in Rain , Thunderstorm Light Thunderstorms and Rain
3:32 AM 73.4 °F 73.4 °F 100% 29.95 in 1.8 mi Calm Calm - 0.02 in Rain , Thunderstorm Heavy Thunderstorms and Rain
3:37 AM 73.4 °F 73.4 °F 100% 29.95 in 3.0 mi Calm Calm - 0.02 in Rain , Thunderstorm Light Thunderstorms and Rain
3:52 AM 73.4 °F 73.4 °F 100% 29.97 in 3.0 mi North 5.8 mph - 0.07 in Rain , Thunderstorm Heavy Thunderstorms and Rain
3:56 AM 71.1 °F 71.1 °F 100% 29.97 in 3.0 mi NNE 10.4 mph - 0.08 in Rain , Thunderstorm Heavy Thunderstorms and Rain
4:04 AM 69.8 °F 68.0 °F 94% 29.95 in 6.0 mi NNE 5.8 mph - 0.00 in Rain , Thunderstorm Thunderstorms and Rain
4:09 AM 69.8 °F 68.0 °F 94% 29.95 in 8.0 mi NE 6.9 mph - N/A Rain Light Rain
4:18 AM 69.8 °F 69.8 °F 100% 29.95 in 10.0 mi Calm Calm - N/A Rain Rain
4:56 AM 69.1 °F 69.1 °F 100% 29.95 in 10.0 mi Calm Calm - N/A   Mostly Cloudy
5:56 AM 69.1 °F 68.0 °F 96% 29.96 in 10.0 mi SSE 6.9 mph - N/A   Mostly Cloudy
6:03 AM 69.8 °F 68.0 °F 94% 29.96 in 10.0 mi South 4.6 mph - N/A   Mostly Cloudy
6:19 AM 69.8 °F 69.8 °F 100% 29.96 in 4.0 mi Calm Calm - N/A Rain Rain
6:28 AM 69.8 °F 68.0 °F 94% 29.96 in 2.0 mi SE 4.6 mph - N/A Rain Rain
6:47 AM 69.8 °F 69.8 °F 100% 29.97 in 6.0 mi Variable 3.5 mph - N/A Rain Light Rain
6:56 AM 69.1 °F 68.0 °F 96% 29.99 in 7.0 mi SSW 6.9 mph - N/A   Overcast
7:04 AM 69.8 °F 69.8 °F 100% 29.98 in 1.0 mi SW 5.8 mph - 0.01 in Rain Rain
7:06 AM 69.8 °F 69.8 °F 100% 29.99 in 0.5 mi SSW 4.6 mph - 0.06 in Fog , Rain Rain
7:09 AM 69.8 °F 69.8 °F 100% 29.98 in 1.0 mi South 9.2 mph - 0.09 in Rain Heavy Rain
7:20 AM 69.8 °F 69.8 °F 100% 29.99 in 5.0 mi SW 4.6 mph - 0.11 in Rain Light Rain
7:35 AM 69.8 °F 69.8 °F 100% 29.99 in 1.0 mi SSW 6.9 mph - 0.13 in Rain Light Rain
7:56 AM 70.0 °F 70.0 °F 100% 30.01 in 1.5 mi SSW 8.1 mph - 0.18 in Rain Rain
8:20 AM 69.8 °F 69.8 °F 100% 30.01 in 2.0 mi SSW 8.1 mph - 0.01 in Rain Light Rain
8:48 AM 68.0 °F 68.0 °F 100% 30.01 in 3.0 mi South 10.4 mph - 0.01 in Rain Light Rain
8:56 AM 68.0 °F 68.0 °F 100% 30.02 in 3.0 mi South 10.4 mph - 0.01 in Rain Light Rain
9:13 AM 69.8 °F 68.0 °F 94% 30.01 in 5.0 mi SSW 10.4 mph - 0.00 in Rain Light Rain
9:20 AM 69.8 °F 68.0 °F 94% 30.02 in 7.0 mi SSW 10.4 mph - 0.00 in   Overcast
9:33 AM 69.8 °F 68.0 °F 94% 30.01 in 7.0 mi South 8.1 mph - 0.00 in Rain Light Rain
9:48 AM 69.8 °F 68.0 °F 94% 30.02 in 10.0 mi SSW 5.8 mph - 0.00 in   Overcast
9:56 AM 70.0 °F 68.0 °F 93% 30.02 in 10.0 mi SSW 5.8 mph - 0.00 in   Overcast
10:06 AM 69.8 °F 68.0 °F 94% 30.02 in 3.0 mi SSW 5.8 mph - 0.00 in Rain Light Rain
10:30 AM 69.8 °F 68.0 °F 94% 30.03 in 2.0 mi NNW 5.8 mph - 0.00 in Rain Rain
10:36 AM 69.8 °F 68.0 °F 94% 30.03 in 1.5 mi NNW 5.8 mph - 0.00 in Rain Rain
10:56 AM 69.1 °F 69.1 °F 100% 30.03 in 1.0 mi NNW 4.6 mph - 0.11 in Rain Rain
11:13 AM 69.8 °F 69.8 °F 100% 30.02 in 1.5 mi NNW 3.5 mph - N/A Rain Rain
11:26 AM 69.8 °F 69.8 °F 100% 30.01 in 2.5 mi North 5.8 mph - N/A Rain Light Rain
11:35 AM 69.8 °F 69.8 °F 100% 30.00 in 5.0 mi North 5.8 mph - N/A Rain Light Rain
11:56 AM 69.1 °F 68.0 °F 96% 30.01 in 5.0 mi NNW 6.9 mph - 0.08 in Rain Light Rain
12:28 PM 69.8 °F 66.2 °F 88% 29.99 in 10.0 mi North 4.6 mph - N/A   Overcast
12:56 PM 70.0 °F 66.9 °F 90% 29.99 in 10.0 mi North 4.6 mph - 0.02 in Rain Light Rain
1:24 PM 69.8 °F 66.2 °F 88% 29.98 in 10.0 mi North 4.6 mph - N/A   Overcast
1:34 PM 71.6 °F 66.2 °F 83% 29.98 in 10.0 mi NNW 4.6 mph - N/A Rain Light Rain
1:56 PM 71.1 °F 66.9 °F 87% 29.97 in 10.0 mi Calm Calm - 0.01 in   Mostly Cloudy
2:56 PM 70.0 °F 64.9 °F 84% 29.97 in 10.0 mi NNW 4.6 mph - 0.00 in   Mostly Cloudy
3:56 PM 70.0 °F 64.9 °F 84% 29.96 in 10.0 mi NNW 3.5 mph - N/A   Mostly Cloudy
4:56 PM 66.9 °F 64.0 °F 90% 29.98 in 10.0 mi WNW 4.6 mph - N/A   Mostly Cloudy
5:56 PM 66.0 °F 63.0 °F 90% 30.00 in 10.0 mi NW 4.6 mph - N/A   Mostly Cloudy
6:56 PM 66.0 °F 60.1 °F 81% 30.01 in 10.0 mi North 8.1 mph - N/A   Mostly Cloudy
7:56 PM 64.9 °F 48.0 °F 54% 30.03 in 10.0 mi North 9.2 mph - N/A   Mostly Cloudy
8:56 PM 63.0 °F 43.0 °F 48% 30.04 in 10.0 mi North 11.5 mph - N/A   Mostly Cloudy
9:56 PM 62.1 °F 39.9 °F 44% 30.05 in 10.0 mi North 12.7 mph - N/A   Mostly Cloudy
10:56 PM 60.1 °F 39.9 °F 47% 30.05 in 10.0 mi North 15.0 mph 20.7 mph N/A   Mostly Cloudy
11:56 PM 57.9 °F 39.9 °F 51% 30.05 in 10.0 mi North 6.9 mph - N/A   Clear